Weather in Novogorskoye

Russia / Udmurt Republic     56°04′50″N   52°10′13″E
temp.,
°C
wind,
m/s
gust,
m/s
humid.,
%
clouds,
%
prec.,
mm/h
press.,
hPa
HPBL,
m
26 february, fri
fri2601:00−20se4897100 0.1 1022336
04:00−21se4897100 0.2 1022265
07:00−22ese479899 0.1 1021176
10:00−21se579599 0.1 1021302
13:00−17se5892100 0.0 1020437
16:00−16se6991100 0.1 1018513
19:00−18se61293100 0.0 1016415
22:00−18se71392100 0.0 1011457
27 february, sat
sat2701:00−16se81495100 0.9 1006589
04:00−14se81395100 3.9 1004707
07:00−13se71294100 1.1 1001554
10:00−11ese61094100 1.5 1000482
13:00−10ese6993100 0.3 999485
16:00−9e6994100 0.6 1000458
19:00−10ene6109499 0.4 1000356
22:00−10ene6119397 0.6 1001372
28 february, sun
sun2801:00−12ne6119396 0.2 1002344
04:00−15ne6119396 0.4 1003311
07:00−17nne6119496 0.1 1005299
10:00−17nne599394 0.1 1007297
13:00−15nne589181 0.0 1008390
16:00−14nne589091 0.0 1010515
19:00−17nne4109494 0.0 1012227
22:00−19n489565 0.0 1015149
1 march, mon
mon101:00−21n47960 0.0 1016109
04:00−21n49960 0.0 1019138
07:00−23n47950 0.0 102096
10:00−19nne36900 0.0 1022244
13:00−14n34830 0.0 1023393
16:00−12nnw248635 0.0 1024439
19:00−17wnw339751 0.0 102430
22:00−20wsw239351 0.0 102421
2 march, tue
tue201:00−20wsw47980 0.0 1022112
04:00−18sw5119441 0.0 1020258
07:00−18sw61294100 0.0 1016303
10:00−14sw71394100 0.1 1013367
13:00−11sw71193100 0.6 1010519
16:00−9sw61193100 1.0 1008553
19:00−9ssw51094100 0.6 1006378
22:00−9ssw4995100 0.8 1006253